Wetterdaten: Woche 21.11.16 - 27.11.16 (KW47)
Datum Zeit Temp. I. Temp. A. Feuchte I. Feuchte A. Luftdruck Regen Wind Richtung Sonnenschein UV Solar Taupunkt Windchill Windben
21.11.2016 00:00 23,8 C 0,0 C 50 % 94 % 1011,2 hPa 0,0 l/m 0,3 km/h (0 Bft) N 0,00 h 0,0 UV-I 0 W/m -0,9 C 0,0 C 0,8 km/h (0 Bft)
21.11.2016 01:00 23,7 C 0,1 C 51 % 95 % 1011,2 hPa 0,0 l/m 3,6 km/h (1 Bft) O-NO 0,00 h 0,0 UV-I 0 W/m -0,6 C -0,4 C 6,1 km/h (2 Bft)
21.11.2016 02:00 23,6 C 2,7 C 51 % 96 % 1010,8 hPa 0,0 l/m 6,6 km/h (2 Bft) O-NO 0,00 h 0,0 UV-I 0 W/m 2,1 C 1,8 C 11,3 km/h (2 Bft)
21.11.2016 03:00 23,6 C 2,8 C 52 % 95 % 1010,8 hPa 0,0 l/m 2,6 km/h (1 Bft) O-NO 0,00 h 0,0 UV-I 0 W/m 2,2 C 2,8 C 4,6 km/h (1 Bft)
21.11.2016 04:00 23,7 C 2,6 C 52 % 95 % 1010,5 hPa 0,0 l/m 6,3 km/h (2 Bft) O-NO 0,00 h 0,0 UV-I 0 W/m 1,9 C 1,6 C 11,4 km/h (2 Bft)
21.11.2016 05:00 23,7 C 2,8 C 53 % 95 % 1010,4 hPa 0,0 l/m 6,1 km/h (2 Bft) O-NO 0,00 h 0,0 UV-I 0 W/m 2,0 C 2,0 C 11,2 km/h (2 Bft)
21.11.2016 06:00 23,7 C 2,6 C 53 % 93 % 1010,3 hPa 0,0 l/m 8,2 km/h (2 Bft) O-NO 0,00 h 0,0 UV-I 0 W/m 1,6 C 0,7 C 14,9 km/h (3 Bft)
21.11.2016 07:00 23,7 C 2,3 C 53 % 92 % 1010,2 hPa 0,0 l/m 7,4 km/h (2 Bft) O-NO 0,00 h 0,0 UV-I 12 W/m 1,2 C 1,0 C 13,3 km/h (3 Bft)
21.11.2016 08:00 23,7 C 2,7 C 53 % 91 % 1010,2 hPa 0,0 l/m 8,1 km/h (2 Bft) O-NO 0,00 h 0,0 UV-I 59 W/m 1,4 C 0,9 C 14,4 km/h (3 Bft)
21.11.2016 09:00 23,8 C 4,3 C 53 % 87 % 1010,0 hPa 0,0 l/m 8,6 km/h (2 Bft) O-NO 0,65 h 0,6 UV-I 184 W/m 2,3 C 2,4 C 15,2 km/h (3 Bft)
21.11.2016 10:00 23,8 C 5,6 C 53 % 83 % 1009,6 hPa 0,0 l/m 8,3 km/h (2 Bft) O-NO 1,00 h 1,0 UV-I 275 W/m 2,9 C 3,7 C 14,5 km/h (3 Bft)
21.11.2016 11:00 24,0 C 6,1 C 52 % 81 % 1009,0 hPa 0,0 l/m 7,9 km/h (2 Bft) O-NO 1,00 h 1,2 UV-I 333 W/m 3,1 C 4,6 C 15,8 km/h (3 Bft)
21.11.2016 12:00 24,1 C 6,7 C 51 % 80 % 1008,5 hPa 0,0 l/m 8,6 km/h (2 Bft) O-NO 1,00 h 1,2 UV-I 296 W/m 3,6 C 5,0 C 15,5 km/h (3 Bft)
21.11.2016 13:00 23,8 C 6,1 C 49 % 83 % 1008,2 hPa 0,0 l/m 6,5 km/h (2 Bft) O-NO 0,65 h 0,8 UV-I 178 W/m 3,5 C 5,2 C 12,3 km/h (3 Bft)
21.11.2016 14:00 23,9 C 5,9 C 50 % 85 % 1008,2 hPa 0,0 l/m 6,5 km/h (2 Bft) O-NO 0,23 h 0,6 UV-I 109 W/m 3,6 C 5,1 C 12,7 km/h (3 Bft)
21.11.2016 15:00 24,0 C 4,9 C 51 % 88 % 1008,4 hPa 0,0 l/m 6,9 km/h (2 Bft) O-NO 0,00 h 0,0 UV-I 29 W/m 3,2 C 3,8 C 13,1 km/h (3 Bft)
21.11.2016 16:00 24,2 C 4,7 C 51 % 90 % 1008,7 hPa 0,0 l/m 6,1 km/h (2 Bft) O-NO 0,00 h 0,0 UV-I 7 W/m 3,2 C 4,0 C 11,7 km/h (2 Bft)
21.11.2016 17:00 24,1 C 4,9 C 53 % 92 % 1009,0 hPa 0,0 l/m 4,2 km/h (1 Bft) O-NO 0,00 h 0,0 UV-I 0 W/m 3,7 C 4,8 C 8,8 km/h (2 Bft)
21.11.2016 18:00 24,1 C 5,4 C 53 % 92 % 1008,7 hPa 0,0 l/m 5,6 km/h (1 Bft) O-NO 0,00 h 0,0 UV-I 0 W/m 4,2 C 4,9 C 10,9 km/h (2 Bft)
21.11.2016 19:00 24,2 C 5,6 C 54 % 91 % 1009,1 hPa 0,0 l/m 2,9 km/h (1 Bft) O-NO 0,00 h 0,0 UV-I 0 W/m 4,3 C 5,5 C 5,7 km/h (1 Bft)
21.11.2016 20:00 24,2 C 5,7 C 54 % 92 % 1009,3 hPa 0,0 l/m 6,4 km/h (2 Bft) O-NO 0,00 h 0,0 UV-I 0 W/m 4,5 C 5,1 C 11,6 km/h (2 Bft)
21.11.2016 21:00 24,4 C 5,8 C 56 % 93 % 1009,5 hPa 0,0 l/m 8,1 km/h (2 Bft) O-NO 0,00 h 0,0 UV-I 0 W/m 4,7 C 4,3 C 13,8 km/h (3 Bft)
21.11.2016 22:00 24,4 C 6,0 C 55 % 95 % 1009,6 hPa 0,0 l/m 9,0 km/h (2 Bft) O-NO 0,00 h 0,0 UV-I 0 W/m 5,1 C 3,8 C 15,8 km/h (3 Bft)
21.11.2016 23:00 24,0 C 6,4 C 53 % 95 % 1009,7 hPa 0,0 l/m 9,5 km/h (2 Bft) O-NO 0,00 h 0,0 UV-I 0 W/m 5,6 C 4,0 C 16,7 km/h (3 Bft)
22.11.2016 00:00 23,8 C 6,6 C 53 % 95 % 1009,9 hPa 0,0 l/m 6,9 km/h (2 Bft) O-NO 0,00 h 0,0 UV-I 0 W/m 5,9 C 5,7 C 13,7 km/h (3 Bft)
22.11.2016 01:00 23,7 C 6,7 C 53 % 96 % 1010,1 hPa 0,0 l/m 7,3 km/h (2 Bft) O-NO 0,00 h 0,0 UV-I 0 W/m 6,1 C 5,6 C 12,9 km/h (3 Bft)
22.11.2016 02:00 23,6 C 6,6 C 53 % 95 % 1010,5 hPa 0,0 l/m 6,7 km/h (2 Bft) O-NO 0,00 h 0,0 UV-I 0 W/m 5,9 C 5,7 C 12,1 km/h (2 Bft)
22.11.2016 03:00 23,6 C 6,6 C 54 % 95 % 1010,7 hPa 0,0 l/m 6,0 km/h (2 Bft) O 0,00 h 0,0 UV-I 0 W/m 5,9 C 6,2 C 11,0 km/h (2 Bft)
22.11.2016 04:00 23,5 C 6,4 C 54 % 95 % 1010,9 hPa 0,0 l/m 5,8 km/h (2 Bft) O-NO 0,00 h 0,0 UV-I 0 W/m 5,6 C 5,9 C 11,4 km/h (2 Bft)
22.11.2016 05:00 23,5 C 6,3 C 54 % 95 % 1011,3 hPa 0,0 l/m 4,2 km/h (1 Bft) O 0,00 h 0,0 UV-I 0 W/m 5,5 C 6,1 C 9,2 km/h (2 Bft)
22.11.2016 06:00 23,4 C 6,2 C 54 % 95 % 1011,8 hPa 0,0 l/m 4,4 km/h (1 Bft) O 0,00 h 0,0 UV-I 0 W/m 5,5 C 6,0 C 9,2 km/h (2 Bft)
22.11.2016 07:00 23,5 C 5,9 C 55 % 96 % 1012,4 hPa 0,0 l/m 3,9 km/h (1 Bft) O-NO 0,00 h 0,0 UV-I 9 W/m 5,3 C 5,8 C 8,2 km/h (2 Bft)
22.11.2016 08:00 23,7 C 6,1 C 55 % 96 % 1013,1 hPa 0,0 l/m 4,5 km/h (1 Bft) O-NO 0,00 h 0,0 UV-I 29 W/m 5,5 C 6,0 C 9,3 km/h (2 Bft)
22.11.2016 09:00 23,9 C 6,6 C 56 % 96 % 1013,7 hPa 0,0 l/m 4,1 km/h (1 Bft) O-NO 0,00 h 0,5 UV-I 63 W/m 5,9 C 6,3 C 7,9 km/h (2 Bft)
22.11.2016 10:00 23,8 C 7,6 C 55 % 94 % 1014,3 hPa 0,0 l/m 2,7 km/h (1 Bft) O-NO 0,37 h 0,7 UV-I 139 W/m 6,7 C 7,5 C 6,7 km/h (2 Bft)
22.11.2016 11:00 23,9 C 8,5 C 55 % 91 % 1014,4 hPa 0,0 l/m 3,1 km/h (1 Bft) O-NO 0,45 h 0,9 UV-I 148 W/m 7,1 C 8,4 C 7,2 km/h (2 Bft)
22.11.2016 12:00 24,0 C 8,7 C 55 % 90 % 1014,4 hPa 0,0 l/m 4,2 km/h (1 Bft) O-NO 0,10 h 0,8 UV-I 138 W/m 7,2 C 8,6 C 8,2 km/h (2 Bft)
22.11.2016 13:00 24,0 C 8,9 C 54 % 90 % 1014,4 hPa 0,0 l/m 5,2 km/h (1 Bft) O-NO 0,43 h 0,7 UV-I 143 W/m 7,3 C 8,6 C 10,3 km/h (2 Bft)
22.11.2016 14:00 24,0 C 8,8 C 54 % 90 % 1014,5 hPa 0,0 l/m 5,2 km/h (1 Bft) O-NO 0,18 h 0,6 UV-I 116 W/m 7,2 C 8,4 C 10,7 km/h (2 Bft)
22.11.2016 15:00 24,1 C 7,9 C 54 % 92 % 1014,9 hPa 0,0 l/m 5,6 km/h (1 Bft) O-NO 0,00 h 0,0 UV-I 23 W/m 6,7 C 7,4 C 10,7 km/h (2 Bft)
22.11.2016 16:00 24,2 C 7,2 C 54 % 94 % 1015,4 hPa 0,0 l/m 4,8 km/h (1 Bft) O-NO 0,00 h 0,0 UV-I 5 W/m 6,3 C 7,0 C 10,0 km/h (2 Bft)
22.11.2016 17:00 24,1 C 6,9 C 54 % 95 % 1015,6 hPa 0,0 l/m 4,8 km/h (1 Bft) O-NO 0,00 h 0,0 UV-I 0 W/m 6,2 C 6,8 C 10,2 km/h (2 Bft)
22.11.2016 18:00 24,1 C 6,6 C 54 % 95 % 1016,1 hPa 0,0 l/m 5,7 km/h (1 Bft) O-NO 0,00 h 0,0 UV-I 0 W/m 5,9 C 6,2 C 11,1 km/h (2 Bft)
22.11.2016 19:00 24,1 C 6,5 C 54 % 95 % 1016,6 hPa 0,0 l/m 4,1 km/h (1 Bft) O-NO 0,00 h 0,0 UV-I 0 W/m 5,7 C 6,4 C 8,5 km/h (2 Bft)
22.11.2016 20:00 24,1 C 6,1 C 55 % 95 % 1016,8 hPa 0,0 l/m 4,4 km/h (1 Bft) O-NO 0,00 h 0,0 UV-I 0 W/m 5,4 C 6,0 C 9,1 km/h (2 Bft)
22.11.2016 21:00 24,2 C 5,8 C 56 % 96 % 1017,1 hPa 0,0 l/m 3,0 km/h (1 Bft) O-NO 0,00 h 0,0 UV-I 0 W/m 5,1 C 5,8 C 6,5 km/h (2 Bft)
22.11.2016 22:00 24,2 C 5,6 C 55 % 96 % 1017,4 hPa 0,0 l/m 3,0 km/h (1 Bft) O-NO 0,00 h 0,0 UV-I 0 W/m 5,0 C 5,6 C 7,0 km/h (2 Bft)
22.11.2016 23:00 23,9 C 5,7 C 54 % 96 % 1017,6 hPa 0,0 l/m 2,9 km/h (1 Bft) O-NO 0,00 h 0,0 UV-I 0 W/m 5,2 C 5,7 C 6,3 km/h (2 Bft)
23.11.2016 00:00 24,0 C 5,7 C 53 % 97 % 1017,5 hPa 0,0 l/m 3,9 km/h (1 Bft) O-NO 0,00 h 0,0 UV-I 0 W/m 5,2 C 5,7 C 8,0 km/h (2 Bft)
23.11.2016 01:00 24,2 C 5,6 C 53 % 97 % 1017,5 hPa 0,0 l/m 2,3 km/h (1 Bft) O-NO 0,00 h 0,0 UV-I 0 W/m 5,1 C 5,6 C 5,1 km/h (1 Bft)
23.11.2016 02:00 24,3 C 5,7 C 54 % 97 % 1017,8 hPa 0,0 l/m 3,1 km/h (1 Bft) O-NO 0,00 h 0,0 UV-I 0 W/m 5,2 C 5,7 C 7,6 km/h (2 Bft)
23.11.2016 03:00 24,3 C 5,7 C 56 % 97 % 1018,2 hPa 0,0 l/m 3,2 km/h (1 Bft) O-NO 0,00 h 0,0 UV-I 0 W/m 5,3 C 5,7 C 6,6 km/h (2 Bft)
23.11.2016 04:00 24,3 C 4,3 C 57 % 96 % 1018,7 hPa 0,0 l/m 0,8 km/h (0 Bft) O-NO 0,00 h 0,0 UV-I 0 W/m 3,8 C 4,3 C 2,4 km/h (1 Bft)
23.11.2016 05:00 24,4 C 5,3 C 57 % 97 % 1018,8 hPa 0,0 l/m 2,6 km/h (1 Bft) O-NO 0,00 h 0,0 UV-I 0 W/m 4,8 C 5,3 C 6,0 km/h (2 Bft)
23.11.2016 06:00 24,3 C 5,3 C 57 % 97 % 1019,0 hPa 0,0 l/m 2,7 km/h (1 Bft) O-NO 0,00 h 0,0 UV-I 0 W/m 4,9 C 5,3 C 6,3 km/h (2 Bft)
23.11.2016 07:00 24,3 C 5,3 C 56 % 97 % 1019,2 hPa 0,0 l/m 3,1 km/h (1 Bft) O-NO 0,00 h 0,0 UV-I 13 W/m 4,9 C 5,3 C 7,6 km/h (2 Bft)
23.11.2016 08:00 24,1 C 6,4 C 57 % 97 % 1019,7 hPa 0,0 l/m 2,9 km/h (1 Bft) O-NO 0,02 h 0,0 UV-I 94 W/m 6,0 C 6,4 C 7,6 km/h (2 Bft)
23.11.2016 09:00 24,2 C 7,6 C 56 % 94 % 1020,1 hPa 0,0 l/m 6,4 km/h (2 Bft) O-NO 0,58 h 0,6 UV-I 165 W/m 6,7 C 6,7 C 12,2 km/h (2 Bft)
23.11.2016 10:00 24,1 C 8,6 C 56 % 90 % 1020,2 hPa 0,0 l/m 5,8 km/h (1 Bft) O-NO 0,92 h 0,9 UV-I 254 W/m 7,0 C 7,8 C 12,1 km/h (2 Bft)
23.11.2016 11:00 24,1 C 9,0 C 55 % 88 % 1020,0 hPa 0,0 l/m 5,9 km/h (2 Bft) O-NO 0,95 h 1,1 UV-I 270 W/m 7,1 C 8,1 C 12,1 km/h (2 Bft)
23.11.2016 12:00 24,2 C 9,8 C 54 % 87 % 1019,8 hPa 0,0 l/m 3,1 km/h (1 Bft) N-NO 1,00 h 1,0 UV-I 298 W/m 7,7 C 9,4 C 7,1 km/h (2 Bft)
23.11.2016 13:00 23,9 C 9,1 C 51 % 88 % 1019,4 hPa 0,0 l/m 3,8 km/h (1 Bft) O-NO 0,40 h 0,7 UV-I 189 W/m 7,2 C 8,7 C 9,6 km/h (2 Bft)
23.11.2016 14:00 23,9 C 8,1 C 51 % 91 % 1019,5 hPa 0,0 l/m 3,1 km/h (1 Bft) N-NO 0,00 h 0,5 UV-I 74 W/m 6,7 C 8,0 C 7,7 km/h (2 Bft)
23.11.2016 15:00 24,1 C 7,5 C 52 % 92 % 1019,7 hPa 0,0 l/m 3,5 km/h (1 Bft) O-NO 0,00 h 0,0 UV-I 29 W/m 6,4 C 7,3 C 7,2 km/h (2 Bft)
23.11.2016 16:00 24,1 C 7,2 C 52 % 93 % 1019,9 hPa 0,0 l/m 5,1 km/h (1 Bft) O-NO 0,00 h 0,0 UV-I 5 W/m 6,3 C 6,8 C 10,8 km/h (2 Bft)
23.11.2016 17:00 24,1 C 6,9 C 53 % 94 % 1020,0 hPa 0,0 l/m 6,2 km/h (2 Bft) O-NO 0,00 h 0,0 UV-I 0 W/m 6,1 C 5,9 C 11,8 km/h (2 Bft)
23.11.2016 18:00 24,3 C 6,8 C 54 % 95 % 1020,1 hPa 0,0 l/m 4,3 km/h (1 Bft) O-NO 0,00 h 0,0 UV-I 0 W/m 6,1 C 6,4 C 8,6 km/h (2 Bft)
23.11.2016 19:00 24,5 C 6,7 C 54 % 95 % 1020,2 hPa 0,0 l/m 7,0 km/h (2 Bft) O-NO 0,00 h 0,0 UV-I 0 W/m 6,0 C 5,7 C 13,0 km/h (3 Bft)
23.11.2016 20:00 24,3 C 6,6 C 53 % 95 % 1020,2 hPa 0,0 l/m 4,9 km/h (1 Bft) O-NO 0,00 h 0,0 UV-I 0 W/m 5,9 C 6,4 C 9,6 km/h (2 Bft)
23.11.2016 21:00 24,4 C 6,4 C 54 % 95 % 1020,3 hPa 0,0 l/m 4,5 km/h (1 Bft) O-NO 0,00 h 0,0 UV-I 0 W/m 5,6 C 5,9 C 9,4 km/h (2 Bft)
23.11.2016 22:00 24,3 C 6,2 C 53 % 95 % 1020,0 hPa 0,0 l/m 5,3 km/h (1 Bft) O-NO 0,00 h 0,0 UV-I 0 W/m 5,5 C 5,8 C 10,2 km/h (2 Bft)
23.11.2016 23:00 24,0 C 6,1 C 52 % 95 % 1019,9 hPa 0,0 l/m 4,7 km/h (1 Bft) O-NO 0,00 h 0,0 UV-I 0 W/m 5,3 C 5,7 C 9,7 km/h (2 Bft)
24.11.2016 00:00 23,8 C 5,9 C 53 % 95 % 1019,9 hPa 0,0 l/m 2,3 km/h (1 Bft) O-NO 0,00 h 0,0 UV-I 0 W/m 5,2 C 5,9 C 5,7 km/h (1 Bft)
24.11.2016 01:00 23,8 C 5,8 C 53 % 95 % 1019,7 hPa 0,0 l/m 6,1 km/h (2 Bft) O-NO 0,00 h 0,0 UV-I 0 W/m 5,1 C 5,2 C 12,1 km/h (2 Bft)
24.11.2016 02:00 23,7 C 5,8 C 53 % 95 % 1019,7 hPa 0,0 l/m 2,6 km/h (1 Bft) O-NO 0,00 h 0,0 UV-I 0 W/m 5,0 C 5,7 C 6,4 km/h (2 Bft)
24.11.2016 03:00 23,6 C 5,7 C 54 % 96 % 1019,5 hPa 0,0 l/m 3,5 km/h (1 Bft) O-NO 0,00 h 0,0 UV-I 0 W/m 5,1 C 5,4 C 7,3 km/h (2 Bft)
24.11.2016 04:00 23,5 C 5,5 C 54 % 96 % 1019,3 hPa 0,0 l/m 3,6 km/h (1 Bft) O-NO 0,00 h 0,0 UV-I 0 W/m 4,9 C 5,4 C 8,4 km/h (2 Bft)
24.11.2016 05:00 23,5 C 5,3 C 54 % 96 % 1019,2 hPa 0,0 l/m 2,9 km/h (1 Bft) O-NO 0,00 h 0,0 UV-I 0 W/m 4,8 C 5,3 C 6,4 km/h (2 Bft)
24.11.2016 06:00 23,4 C 5,2 C 54 % 96 % 1019,2 hPa 0,0 l/m 3,5 km/h (1 Bft) O-NO 0,00 h 0,0 UV-I 0 W/m 4,6 C 5,1 C 6,7 km/h (2 Bft)
24.11.2016 07:00 23,6 C 5,2 C 55 % 96 % 1019,6 hPa 0,0 l/m 2,2 km/h (1 Bft) N 0,00 h 0,0 UV-I 8 W/m 4,6 C 5,2 C 4,0 km/h (1 Bft)
24.11.2016 08:00 24,0 C 5,2 C 56 % 96 % 1020,2 hPa 0,0 l/m 4,9 km/h (1 Bft) N-NO 0,00 h 0,0 UV-I 19 W/m 4,6 C 5,0 C 9,1 km/h (2 Bft)
24.11.2016 09:00 24,2 C 5,5 C 55 % 95 % 1020,7 hPa 0,0 l/m 2,9 km/h (1 Bft) O-NO 0,00 h 0,0 UV-I 34 W/m 4,8 C 5,3 C 5,8 km/h (2 Bft)
24.11.2016 10:00 24,2 C 5,6 C 55 % 95 % 1021,1 hPa 0,0 l/m 4,5 km/h (1 Bft) O-NO 0,00 h 0,5 UV-I 59 W/m 4,9 C 5,3 C 9,0 km/h (2 Bft)
24.11.2016 11:00 24,4 C 6,0 C 55 % 93 % 1021,0 hPa 0,0 l/m 3,4 km/h (1 Bft) O 0,00 h 0,5 UV-I 74 W/m 5,0 C 5,7 C 7,3 km/h (2 Bft)
24.11.2016 12:00 24,4 C 6,2 C 54 % 93 % 1020,8 hPa 0,0 l/m 1,9 km/h (1 Bft) O 0,00 h 0,5 UV-I 70 W/m 5,2 C 6,2 C 4,3 km/h (1 Bft)
24.11.2016 13:00 24,6 C 6,2 C 55 % 93 % 1020,4 hPa 0,0 l/m 3,3 km/h (1 Bft) O 0,00 h 0,5 UV-I 54 W/m 5,2 C 6,1 C 7,1 km/h (2 Bft)
24.11.2016 14:00 24,6 C 6,2 C 55 % 92 % 1020,1 hPa 0,0 l/m 2,8 km/h (1 Bft) O-NO 0,00 h 0,0 UV-I 32 W/m 5,0 C 6,1 C 6,6 km/h (2 Bft)
24.11.2016 15:00 24,3 C 6,2 C 54 % 92 % 1020,1 hPa 0,0 l/m 3,6 km/h (1 Bft) O-NO 0,00 h 0,0 UV-I 9 W/m 5,0 C 6,0 C 8,8 km/h (2 Bft)
24.11.2016 16:00 24,2 C 6,4 C 54 % 93 % 1020,4 hPa 0,0 l/m 3,1 km/h (1 Bft) O-NO 0,00 h 0,0 UV-I 0 W/m 5,3 C 6,0 C 6,3 km/h (2 Bft)
24.11.2016 17:00 24,3 C 6,4 C 55 % 92 % 1020,6 hPa 0,0 l/m 4,4 km/h (1 Bft) O-NO 0,00 h 0,0 UV-I 0 W/m 5,3 C 6,1 C 9,3 km/h (2 Bft)
24.11.2016 18:00 24,6 C 6,5 C 56 % 93 % 1020,5 hPa 0,0 l/m 7,7 km/h (2 Bft) O-NO 0,00 h 0,0 UV-I 0 W/m 5,4 C 5,0 C 14,6 km/h (3 Bft)
24.11.2016 19:00 24,6 C 6,8 C 55 % 92 % 1020,9 hPa 0,0 l/m 5,3 km/h (1 Bft) O-NO 0,00 h 0,0 UV-I 0 W/m 5,6 C 6,2 C 10,0 km/h (2 Bft)
24.11.2016 20:00 24,3 C 7,1 C 56 % 91 % 1021,0 hPa 0,0 l/m 5,2 km/h (1 Bft) O-NO 0,00 h 0,0 UV-I 0 W/m 5,8 C 6,5 C 11,4 km/h (2 Bft)
24.11.2016 21:00 24,3 C 7,3 C 53 % 91 % 1021,0 hPa 0,0 l/m 6,9 km/h (2 Bft) O-NO 0,00 h 0,0 UV-I 0 W/m 5,9 C 6,1 C 13,1 km/h (3 Bft)
24.11.2016 22:00 24,4 C 7,3 C 55 % 91 % 1020,8 hPa 0,0 l/m 6,7 km/h (2 Bft) O-NO 0,00 h 0,0 UV-I 0 W/m 5,9 C 6,3 C 13,1 km/h (3 Bft)
24.11.2016 23:00 24,2 C 7,3 C 55 % 91 % 1020,6 hPa 0,0 l/m 7,1 km/h (2 Bft) O-NO 0,00 h 0,0 UV-I 0 W/m 6,0 C 6,2 C 13,1 km/h (3 Bft)
25.11.2016 00:00 24,0 C 7,3 C 55 % 91 % 1020,4 hPa 0,0 l/m 8,2 km/h (2 Bft) O-NO 0,00 h 0,0 UV-I 0 W/m 5,9 C 5,6 C 14,8 km/h (3 Bft)
25.11.2016 01:00 23,8 C 7,2 C 55 % 91 % 1020,1 hPa 0,0 l/m 7,0 km/h (2 Bft) O-NO 0,00 h 0,0 UV-I 0 W/m 5,8 C 6,0 C 13,5 km/h (3 Bft)
25.11.2016 02:00 23,7 C 7,0 C 55 % 91 % 1020,3 hPa 0,0 l/m 5,8 km/h (1 Bft) O-NO 0,00 h 0,0 UV-I 0 W/m 5,7 C 6,0 C 11,7 km/h (2 Bft)
25.11.2016 03:00 23,7 C 7,0 C 56 % 91 % 1020,3 hPa 0,0 l/m 5,6 km/h (1 Bft) O-NO 0,00 h 0,0 UV-I 0 W/m 5,6 C 6,4 C 11,3 km/h (2 Bft)
25.11.2016 04:00 24,0 C 6,9 C 56 % 92 % 1019,8 hPa 0,0 l/m 5,6 km/h (1 Bft) O-NO 0,00 h 0,0 UV-I 0 W/m 5,6 C 6,1 C 11,4 km/h (2 Bft)
25.11.2016 05:00 24,2 C 6,9 C 56 % 91 % 1019,6 hPa 0,0 l/m 4,7 km/h (1 Bft) NO 0,00 h 0,0 UV-I 0 W/m 5,5 C 6,3 C 10,0 km/h (2 Bft)
25.11.2016 06:00 24,2 C 6,9 C 56 % 90 % 1019,6 hPa 0,0 l/m 4,7 km/h (1 Bft) O-NO 0,00 h 0,0 UV-I 0 W/m 5,3 C 6,5 C 10,0 km/h (2 Bft)
25.11.2016 07:00 24,0 C 6,6 C 56 % 90 % 1019,3 hPa 0,0 l/m 5,2 km/h (1 Bft) N-NO 0,00 h 0,0 UV-I 0 W/m 5,1 C 5,9 C 10,5 km/h (2 Bft)
25.11.2016 08:00 23,9 C 6,6 C 56 % 90 % 1019,8 hPa 0,0 l/m 4,1 km/h (1 Bft) O-NO 0,00 h 0,0 UV-I 11 W/m 5,2 C 6,2 C 8,3 km/h (2 Bft)
25.11.2016 09:00 23,9 C 6,7 C 56 % 90 % 1019,9 hPa 0,0 l/m 5,0 km/h (1 Bft) O-NO 0,00 h 0,0 UV-I 28 W/m 5,1 C 6,1 C 10,9 km/h (2 Bft)
25.11.2016 10:00 23,9 C 6,7 C 56 % 90 % 1020,3 hPa 0,0 l/m 5,7 km/h (1 Bft) O-NO 0,00 h 0,5 UV-I 50 W/m 5,1 C 5,9 C 11,6 km/h (2 Bft)
25.11.2016 11:00 24,0 C 7,1 C 56 % 88 % 1019,9 hPa 0,0 l/m 3,0 km/h (1 Bft) O-NO 0,00 h 0,6 UV-I 73 W/m 5,3 C 6,8 C 6,4 km/h (2 Bft)
25.11.2016 12:00 24,2 C 7,3 C 55 % 88 % 1019,5 hPa 0,0 l/m 7,1 km/h (2 Bft) O-NO 0,00 h 0,6 UV-I 100 W/m 5,4 C 5,9 C 12,6 km/h (3 Bft)
25.11.2016 13:00 24,2 C 7,2 C 55 % 88 % 1019,5 hPa 0,0 l/m 6,4 km/h (2 Bft) O-NO 0,00 h 0,5 UV-I 47 W/m 5,4 C 6,2 C 12,0 km/h (2 Bft)
25.11.2016 14:00 24,1 C 7,1 C 54 % 89 % 1019,5 hPa 0,0 l/m 7,0 km/h (2 Bft) O-NO 0,00 h 0,0 UV-I 24 W/m 5,4 C 5,8 C 13,3 km/h (3 Bft)
25.11.2016 15:00 24,2 C 6,8 C 54 % 90 % 1019,6 hPa 0,0 l/m 6,3 km/h (2 Bft) O-NO 0,00 h 0,0 UV-I 9 W/m 5,2 C 5,9 C 11,5 km/h (2 Bft)
25.11.2016 16:00 24,0 C 6,6 C 53 % 90 % 1019,6 hPa 0,0 l/m 5,2 km/h (1 Bft) O-NO 0,00 h 0,0 UV-I 0 W/m 5,1 C 6,1 C 10,0 km/h (2 Bft)
25.11.2016 17:00 23,9 C 6,4 C 53 % 90 % 1019,4 hPa 0,0 l/m 2,8 km/h (1 Bft) O-NO 0,00 h 0,0 UV-I 0 W/m 4,9 C 6,4 C 6,6 km/h (2 Bft)
25.11.2016 18:00 23,9 C 6,5 C 53 % 90 % 1019,5 hPa 0,0 l/m 1,8 km/h (1 Bft) O-NO 0,00 h 0,0 UV-I 0 W/m 5,0 C 6,5 C 4,1 km/h (1 Bft)
25.11.2016 19:00 24,2 C 6,6 C 55 % 90 % 1019,6 hPa 0,0 l/m 0,9 km/h (0 Bft) O-NO 0,00 h 0,0 UV-I 0 W/m 5,1 C 6,6 C 2,1 km/h (1 Bft)
25.11.2016 20:00 24,1 C 6,5 C 55 % 89 % 1019,9 hPa 0,0 l/m 3,6 km/h (1 Bft) O-NO 0,00 h 0,0 UV-I 0 W/m 4,9 C 6,3 C 7,4 km/h (2 Bft)
25.11.2016 21:00 24,2 C 6,3 C 54 % 89 % 1020,3 hPa 0,0 l/m 1,3 km/h (1 Bft) O-NO 0,00 h 0,0 UV-I 0 W/m 4,6 C 6,3 C 3,1 km/h (1 Bft)
25.11.2016 22:00 24,2 C 6,2 C 54 % 89 % 1020,4 hPa 0,0 l/m 0,4 km/h (0 Bft) NO 0,00 h 0,0 UV-I 0 W/m 4,5 C 6,2 C 0,8 km/h (0 Bft)
25.11.2016 23:00 24,1 C 6,0 C 55 % 89 % 1020,3 hPa 0,0 l/m 0,0 km/h (0 Bft) N 0,00 h 0,0 UV-I 0 W/m 4,3 C 6,0 C 0,0 km/h (0 Bft)
26.11.2016 00:00 23,9 C 5,7 C 55 % 90 % 1020,0 hPa 0,0 l/m 0,0 km/h (0 Bft) N 0,00 h 0,0 UV-I 0 W/m 4,2 C 5,7 C 0,0 km/h (0 Bft)
26.11.2016 01:00 23,8 C 5,7 C 55 % 89 % 1019,8 hPa 0,0 l/m 0,0 km/h (0 Bft) N 0,00 h 0,0 UV-I 0 W/m 4,0 C 5,7 C 0,0 km/h (0 Bft)
26.11.2016 02:00 23,7 C 5,6 C 55 % 88 % 1019,7 hPa 0,0 l/m 0,1 km/h (0 Bft) O-NO 0,00 h 0,0 UV-I 0 W/m 3,8 C 5,6 C 0,2 km/h (0 Bft)
26.11.2016 03:00 23,7 C 5,6 C 55 % 88 % 1019,3 hPa 0,0 l/m 0,3 km/h (0 Bft) O-NO 0,00 h 0,0 UV-I 0 W/m 3,7 C 5,6 C 1,0 km/h (0 Bft)
26.11.2016 04:00 23,6 C 5,5 C 56 % 88 % 1019,0 hPa 0,0 l/m 0,6 km/h (0 Bft) O-NO 0,00 h 0,0 UV-I 0 W/m 3,6 C 5,5 C 1,4 km/h (1 Bft)
26.11.2016 05:00 23,6 C 5,3 C 56 % 88 % 1018,9 hPa 0,0 l/m 0,3 km/h (0 Bft) O-NO 0,00 h 0,0 UV-I 0 W/m 3,5 C 5,3 C 0,8 km/h (0 Bft)
26.11.2016 06:00 23,5 C 5,2 C 56 % 88 % 1019,0 hPa 0,0 l/m 0,0 km/h (0 Bft) N 0,00 h 0,0 UV-I 0 W/m 3,3 C 5,2 C 0,0 km/h (0 Bft)
26.11.2016 07:00 23,7 C 5,1 C 57 % 88 % 1019,0 hPa 0,0 l/m 0,0 km/h (0 Bft) N 0,00 h 0,0 UV-I 0 W/m 3,3 C 5,1 C 0,0 km/h (0 Bft)
26.11.2016 08:00 23,7 C 5,0 C 57 % 89 % 1018,9 hPa 0,0 l/m 1,3 km/h (1 Bft) N 0,00 h 0,0 UV-I 10 W/m 3,3 C 5,0 C 2,2 km/h (1 Bft)
26.11.2016 09:00 24,1 C 4,8 C 58 % 90 % 1018,8 hPa 0,0 l/m 0,4 km/h (0 Bft) N 0,00 h 0,0 UV-I 23 W/m 3,3 C 4,8 C 0,8 km/h (0 Bft)
26.11.2016 10:00 24,2 C 5,0 C 57 % 90 % 1018,8 hPa 0,0 l/m 0,0 km/h (0 Bft) N 0,00 h 0,0 UV-I 35 W/m 3,5 C 5,0 C 0,0 km/h (0 Bft)
26.11.2016 11:00 24,2 C 5,3 C 57 % 90 % 1018,5 hPa 0,0 l/m 0,0 km/h (0 Bft) N 0,00 h 0,0 UV-I 44 W/m 3,8 C 5,3 C 0,0 km/h (0 Bft)
26.11.2016 12:00 23,9 C 5,3 C 54 % 90 % 1017,9 hPa 0,0 l/m 0,0 km/h (0 Bft) N 0,00 h 0,0 UV-I 43 W/m 3,9 C 5,3 C 0,0 km/h (0 Bft)
26.11.2016 13:00 24,1 C 5,4 C 55 % 90 % 1017,2 hPa 0,0 l/m 0,0 km/h (0 Bft) N 0,00 h 0,0 UV-I 37 W/m 3,9 C 5,4 C 0,0 km/h (0 Bft)
26.11.2016 14:00 24,2 C 5,4 C 55 % 89 % 1016,6 hPa 0,0 l/m 0,0 km/h (0 Bft) N 0,00 h 0,0 UV-I 19 W/m 3,8 C 5,4 C 0,0 km/h (0 Bft)
26.11.2016 15:00 24,3 C 5,3 C 55 % 89 % 1016,4 hPa 0,0 l/m 0,0 km/h (0 Bft) N 0,00 h 0,0 UV-I 9 W/m 3,5 C 5,3 C 0,0 km/h (0 Bft)
26.11.2016 16:00 24,3 C 5,1 C 55 % 89 % 1016,5 hPa 0,0 l/m 0,0 km/h (0 Bft) N 0,00 h 0,0 UV-I 0 W/m 3,4 C 5,1 C 0,0 km/h (0 Bft)
26.11.2016 17:00 24,1 C 4,9 C 55 % 90 % 1016,6 hPa 0,0 l/m 0,0 km/h (0 Bft) N 0,00 h 0,0 UV-I 0 W/m 3,4 C 4,9 C 0,0 km/h (0 Bft)
26.11.2016 18:00 24,2 C 4,9 C 56 % 91 % 1016,6 hPa 0,0 l/m 0,0 km/h (0 Bft) N 0,00 h 0,0 UV-I 0 W/m 3,5 C 4,9 C 0,0 km/h (0 Bft)
26.11.2016 19:00 24,3 C 4,9 C 55 % 92 % 1016,7 hPa 0,0 l/m 0,0 km/h (0 Bft) N 0,00 h 0,0 UV-I 0 W/m 3,7 C 4,9 C 0,0 km/h (0 Bft)
26.11.2016 20:00 24,1 C 5,1 C 54 % 93 % 1016,7 hPa 0,0 l/m 0,0 km/h (0 Bft) W-SW 0,00 h 0,0 UV-I 0 W/m 4,0 C 5,1 C 0,5 km/h (0 Bft)
26.11.2016 21:00 24,3 C 5,1 C 53 % 92 % 1016,7 hPa 0,0 l/m 0,5 km/h (0 Bft) SW 0,00 h 0,0 UV-I 0 W/m 3,8 C 5,1 C 1,5 km/h (1 Bft)
26.11.2016 22:00 24,3 C 5,0 C 53 % 90 % 1016,4 hPa 0,0 l/m 0,0 km/h (0 Bft) N 0,00 h 0,0 UV-I 0 W/m 3,5 C 5,0 C 0,1 km/h (0 Bft)
26.11.2016 23:00 24,0 C 4,8 C 52 % 91 % 1016,5 hPa 0,0 l/m 0,2 km/h (0 Bft) W 0,00 h 0,0 UV-I 0 W/m 3,4 C 4,8 C 1,1 km/h (0 Bft)
27.11.2016 00:00 23,8 C 4,6 C 53 % 91 % 1016,2 hPa 0,0 l/m 0,6 km/h (0 Bft) W 0,00 h 0,0 UV-I 0 W/m 3,3 C 4,6 C 2,3 km/h (1 Bft)
27.11.2016 01:00 23,8 C 4,6 C 54 % 89 % 1015,9 hPa 0,0 l/m 1,7 km/h (1 Bft) W 0,00 h 0,0 UV-I 0 W/m 3,0 C 4,6 C 3,8 km/h (1 Bft)
27.11.2016 02:00 23,7 C 4,5 C 54 % 89 % 1015,7 hPa 0,0 l/m 2,0 km/h (1 Bft) W 0,00 h 0,0 UV-I 0 W/m 2,9 C 4,5 C 4,3 km/h (1 Bft)
27.11.2016 03:00 23,7 C 3,9 C 54 % 92 % 1015,7 hPa 0,0 l/m 2,6 km/h (1 Bft) W 0,00 h 0,0 UV-I 0 W/m 2,7 C 3,8 C 5,2 km/h (1 Bft)
27.11.2016 04:00 23,6 C 3,2 C 55 % 93 % 1015,5 hPa 0,0 l/m 0,6 km/h (0 Bft) W-SW 0,00 h 0,0 UV-I 0 W/m 2,2 C 3,2 C 1,6 km/h (1 Bft)
27.11.2016 05:00 23,5 C 2,7 C 55 % 94 % 1015,3 hPa 0,0 l/m 0,1 km/h (0 Bft) W-SW 0,00 h 0,0 UV-I 0 W/m 1,9 C 2,7 C 0,2 km/h (0 Bft)
27.11.2016 06:00 23,4 C 2,7 C 55 % 95 % 1015,5 hPa 0,0 l/m 0,0 km/h (0 Bft) N 0,00 h 0,0 UV-I 0 W/m 2,0 C 2,7 C 0,0 km/h (0 Bft)
27.11.2016 07:00 23,4 C 3,2 C 55 % 96 % 1015,7 hPa 0,2 l/m 1,3 km/h (1 Bft) W 0,00 h 0,0 UV-I 0 W/m 2,5 C 3,2 C 4,0 km/h (1 Bft)
27.11.2016 08:00 23,6 C 3,5 C 56 % 96 % 1016,2 hPa 0,0 l/m 1,5 km/h (1 Bft) W 0,00 h 0,0 UV-I 9 W/m 2,9 C 3,5 C 4,6 km/h (1 Bft)
27.11.2016 09:00 23,8 C 3,7 C 55 % 96 % 1016,6 hPa 0,0 l/m 1,7 km/h (1 Bft) NW 0,00 h 0,0 UV-I 24 W/m 3,1 C 3,7 C 4,5 km/h (1 Bft)
27.11.2016 10:00 23,8 C 4,2 C 51 % 96 % 1016,7 hPa 0,0 l/m 3,7 km/h (1 Bft) NW 0,23 h 0,6 UV-I 98 W/m 3,5 C 4,0 C 6,8 km/h (2 Bft)
27.11.2016 11:00 23,8 C 5,5 C 49 % 89 % 1016,4 hPa 0,0 l/m 8,2 km/h (2 Bft) NW 0,30 h 0,9 UV-I 120 W/m 3,8 C 3,6 C 12,9 km/h (3 Bft)
27.11.2016 12:00 23,8 C 5,4 C 48 % 86 % 1016,3 hPa 0,0 l/m 7,8 km/h (2 Bft) N-NW 0,12 h 0,7 UV-I 90 W/m 3,2 C 3,7 C 13,3 km/h (3 Bft)
27.11.2016 13:00 24,0 C 4,5 C 47 % 88 % 1016,2 hPa 0,0 l/m 6,1 km/h (2 Bft) N-NW 0,00 h 0,5 UV-I 57 W/m 2,7 C 3,8 C 11,2 km/h (2 Bft)
27.11.2016 14:00 24,1 C 4,2 C 47 % 85 % 1016,5 hPa 0,0 l/m 7,0 km/h (2 Bft) N 0,00 h 0,0 UV-I 48 W/m 1,8 C 2,8 C 11,9 km/h (2 Bft)
27.11.2016 15:00 24,1 C 4,0 C 47 % 83 % 1016,9 hPa 0,0 l/m 4,0 km/h (1 Bft) N 0,00 h 0,0 UV-I 20 W/m 1,4 C 3,6 C 7,4 km/h (2 Bft)
27.11.2016 16:00 24,0 C 3,1 C 46 % 88 % 1017,4 hPa 0,0 l/m 4,7 km/h (1 Bft) N-NW 0,00 h 0,0 UV-I 5 W/m 1,3 C 2,9 C 8,3 km/h (2 Bft)
27.11.2016 17:00 24,0 C 1,9 C 46 % 90 % 1017,8 hPa 0,0 l/m 2,6 km/h (1 Bft) N-NW 0,00 h 0,0 UV-I 0 W/m 0,4 C 1,9 C 5,2 km/h (1 Bft)
27.11.2016 18:00 24,2 C 0,9 C 46 % 91 % 1018,5 hPa 0,0 l/m 1,9 km/h (1 Bft) N-NW 0,00 h 0,0 UV-I 0 W/m -0,4 C 0,9 C 5,1 km/h (1 Bft)
27.11.2016 19:00 24,3 C 0,4 C 46 % 93 % 1019,2 hPa 0,0 l/m 7,4 km/h (2 Bft) N 0,00 h 0,0 UV-I 0 W/m -0,7 C -1,0 C 11,2 km/h (2 Bft)
27.11.2016 20:00 24,3 C 0,1 C 47 % 93 % 1019,6 hPa 0,0 l/m 7,7 km/h (2 Bft) N 0,00 h 0,0 UV-I 0 W/m -0,8 C -1,5 C 11,4 km/h (2 Bft)
27.11.2016 21:00 24,4 C 0,1 C 47 % 93 % 1020,0 hPa 0,0 l/m 10,7 km/h (2 Bft) N 0,00 h 0,0 UV-I 0 W/m -0,9 C -3,8 C 15,4 km/h (3 Bft)
27.11.2016 22:00 24,3 C -0,2 C 47 % 92 % 1020,3 hPa 0,0 l/m 6,5 km/h (2 Bft) N 0,00 h 0,0 UV-I 0 W/m -1,4 C -1,4 C 10,5 km/h (2 Bft)
27.11.2016 23:00 24,1 C -0,6 C 46 % 92 % 1020,6 hPa 0,0 l/m 5,4 km/h (1 Bft) N 0,00 h 0,0 UV-I 0 W/m -1,8 C -1,0 C 9,3 km/h (2 Bft)
Min-Datum _ 22.11.16 27.11.16 27.11.16 21.11.16 21.11.16 - 21.11.16 - - - - 27.11.16 27.11.16 21.11.16
_ Min-Zeit 05:18 23:32 16:28 12:14 13:10 - 00:00 - - - - 23:13 21:44 00:00
Minimum _ 23,4 C -0,7 C 41 % 78 % 1008,0 hPa - 0,0 km/h (0 Bft) - - - - -1,9 C -7,7 C 0,0 km/h (0 Bft)
Max-Datum _ 24.11.16 23.11.16 26.11.16 23.11.16 24.11.16 27.11.16 24.11.16 - 21.11.16 21.11.16 23.11.16 23.11.16 23.11.16 25.11.16
_ Max-Zeit 18:41 12:37 09:32 08:05 10:32 07:35 18:32 - 10:57 11:28 13:16 13:17 12:38 02:09
Maximum _ 24,7 C 10,3 C 59 % 98 % 1021,3 hPa 0,2 l/m 19,3 km/h
O-NO (3 Bft)
- 0,03 h 1,3 UV-I 413 W/m 8,2 C 10,3 C 30,6 km/h
O-NO (5 Bft)
Durchschnitt _ 24,0 C 5,6 C 54 % 92 % 1016,9 hPa #0,2 l/m 4,0 km/h (1 Bft) O-NO #10:35 h 0,7 UV-I 79 W/m 4,3 C 5,1 C 7,8 km/h (2 Bft)